Location: Navalespino
(40.5894°N, 4.2660°W)
Time: 21:46:10
(UTC+00:00)

CSL-04 Rocket - Pass Details

Date: 18 April 2024
Orbit: 804 x 860 km, 98.8° (Epoch: 23 May)

Event Time Altitude Azimuth Distance (km) Brightness Sun altitude
Exits shadow 20:12:54 - 164° (SSE) 2,690 5.9 -13.7°
Reaches altitude 10° 20:13:27 10° 164° (SSE) 2,478 5.7 -13.8°
Maximum altitude 20:18:58 88° 77° (ENE) 855 3.7 -14.7°
Drops below altitude 10° 20:24:27 10° 347° (NNW) 2,464 6.7 -15.6°
Sets 20:26:49 0° 347° (NNW) 3,395 7.5 -16.0°
